Home   Weather   Erlangen   Past weeks

Flag for Germany Past Weather in Erlangen, Bavaria, Germany — Yesterday and Last 2 Weeks

Now
54 °F

Passing clouds.


Feels Like: 53 °F
Forecast: 55 / 65 °F
Wind: 3 mph from Northwest

Location: Nuernberg

Current Time: Jul 25, 2017 at 2:57:42 am

Latest Report: Jul 25, 2017 at 2:20 am


Visibility: N/A

Pressure: 29.80 "Hg

Humidity: 94%

Dew Point: 52 °F

Location of ErlangenLocation

Past Weather in Erlangen — Graph

°F

Erlangen Temperature Yesterday

Maximum temperature yesterday: 66 °F (at 10:20 am)
Minimum temperature yesterday: 54 °F (at 2:20 am)
Average temperature yesterday: 60 °F

High & Low Weather Summary for the Past Weeks

 TemperatureHumidityPressure
High90 °F (Jul 19, 3:50 pm)100% (Jul 11, 6:50 am)30.30 "Hg (Jul 11, 6:50 am)
Low48 °F (Jul 16, 5:20 am)29% (Jul 19, 4:20 pm)29.74 "Hg (Jul 24, 11:50 am)
Average67 °F71%30.01 "Hg
* Reported Jul 10 1:20 am — Jul 25 1:20 am, Erlangen. Weather by CustomWeather, © 2017

Note: Actual official high and low records may vary slightly from our data, if they occured in-between our weather recording intervals... More about our weather records

Advertising

Erlangen Weather History for the Previous 24 Hours

Scroll right to see more
 ConditionsComfort  
Time TempWeatherWind HumidityBarometerVisibility
1:20 am
Tue, Jul 25
54 °FPassing clouds.9 mph94%29.80 "HgN/A
12:50 am55 °FPassing clouds.9 mph88%29.83 "HgN/A
12:20 am55 °FPassing clouds.9 mph88%29.80 "HgN/A
11:50 pm
Mon, Jul 24
55 °FPassing clouds.7 mph88%29.83 "HgN/A
11:20 pm55 °FClear.9 mph88%29.83 "Hg10 mi
10:50 pm55 °FClear.7 mph88%29.83 "Hg10 mi
10:20 pm55 °FPassing clouds.7 mph88%29.83 "HgN/A
9:50 pm57 °FPassing clouds.8 mph82%29.83 "HgN/A
8:50 pm59 °FScattered showers. Partly sunny.10 mph82%29.80 "HgN/A
8:20 pm61 °FSprinkles. Broken clouds.13 mph77%29.80 "HgN/A
7:50 pm61 °FSprinkles. Partly sunny.14 mph72%29.80 "HgN/A
7:20 pm63 °FPartly sunny.14 mph68%29.77 "HgN/A
6:50 pm64 °FScattered clouds.12 mph64%29.77 "HgN/A
6:20 pm64 °FPartly sunny.17 mph64%29.77 "HgN/A
5:50 pm66 °FPartly sunny.16 mph60%29.77 "HgN/A
5:20 pm64 °FBroken clouds.13 mph64%29.77 "HgN/A
4:50 pm64 °FBroken clouds.12 mph68%29.80 "HgN/A
4:20 pm63 °FBroken clouds.14 mph73%29.80 "HgN/A
3:50 pm63 °FBroken clouds.16 mph73%29.80 "HgN/A
3:20 pm61 °FBroken clouds.17 mph77%29.80 "HgN/A
2:54 pm61 °FPartly sunny.17 mph83%29.77 "HgN/A
2:20 pm61 °FScattered clouds.16 mph88%29.77 "HgN/A
1:56 pm61 °FThundershowers. Broken clouds.9 mph94%29.77 "HgN/A
1:27 pm64 °FPartly sunny.6 mph94%29.74 "HgN/A
1:20 pm64 °FPartly sunny.7 mph94%29.74 "HgN/A
12:50 pm63 °FRain showers. Broken clouds.9 mph94%29.74 "Hg5 mi
12:20 pm66 °FSprinkles. Partly sunny.6 mph83%29.74 "HgN/A
11:50 am66 °FSprinkles. Broken clouds.10 mph83%29.74 "HgN/A
11:20 am66 °FLight rain. Broken clouds.8 mph78%29.77 "HgN/A
10:50 am66 °FPartly sunny.9 mph78%29.77 "HgN/A
10:20 am66 °FPartly sunny.12 mph78%29.77 "HgN/A
9:50 am64 °FPartly sunny.8 mph78%29.77 "HgN/A
9:20 am63 °FPartly sunny.8 mph83%29.80 "HgN/A
8:50 am61 °FPartly sunny.5 mph77%29.80 "HgN/A
8:20 am61 °FPartly sunny.5 mph72%29.80 "HgN/A
7:50 am59 °FSunny.5 mph77%29.83 "Hg10 mi
7:20 am59 °FSunny.5 mph77%29.83 "Hg10 mi
6:50 am55 °FSunny.5 mph88%29.83 "Hg10 mi
6:20 am54 °FSunny.6 mph88%29.86 "Hg10 mi
5:50 am54 °FSunny.5 mph88%29.86 "Hg10 mi
5:20 am54 °FClear.3 mph88%29.89 "Hg10 mi
4:50 am54 °FPassing clouds.3 mph88%29.89 "HgN/A
4:20 am54 °FClear.6 mph94%29.92 "Hg10 mi
3:50 am54 °FClear.5 mph88%29.92 "Hg10 mi
2:50 am54 °FClear.5 mph88%29.95 "Hg10 mi
2:20 am54 °FClear.6 mph88%29.95 "Hg10 mi
Weather by CustomWeather, © 2017

See weather overviewHow to use our weather pages